Terminal Aerodrome Forecast
Issued by NWS Missoula, MT

Home | Current Version | Previous Version | Text Only | Print | Product List | Glossary On
Versions: 1 2 3 4 5 6 7 8 9 10 11 12 13 14
000
FTUS45 KMSO 031124
TAFGPI
TAF
KGPI 031124Z 0312/0412 02010KT P6SM BKN060
     FM031800 VRB05KT P6SM FEW150=

USA.gov is the U.S. government's official web portal to all federal, state and local government web resources and services.